Location: Washington
(38.8950°N, 77.0370°W)
Time: 05:17:49
(UTC-05:00)

ISS - All Passes

Search period start: 29 January 2015 00:00
Search period end: 08 February 2015 00:00
Orbit: 402 x 410 km, 51.6° (Epoch: 28 January)

Date Brightness Start Highest point End Pass type
(mag) Time Alt. Az. Time Alt. Az. Time Alt. Az.
29 Jan - 00:39:14 10° NNW 00:39:53 10° N 00:40:30 10° N night (unlit)
29 Jan - 02:16:45 10° N 02:17:35 11° N 02:18:29 10° NNE night (unlit)
29 Jan - 03:51:57 10° NW 03:54:56 31° NNE 03:57:57 10° E visible
29 Jan - 05:28:31 10° WNW 05:31:25 28° SW 05:34:17 10° SSE visible
29 Jan - 20:32:11 10° S 20:34:17 16° SE 20:36:27 10° E night (unlit)
29 Jan - 22:07:22 10° WSW 22:10:33 48° NW 22:13:45 10° NE night (unlit)
29 Jan - 23:46:08 10° NW 23:47:43 13° NNW 23:49:15 10° NNE night (unlit)
30 Jan - 03:00:22 10° NNW 03:02:55 20° NNE 03:05:30 10° ENE night (unlit)
30 Jan - 04:36:25 10° WNW 04:39:40 57° SW 04:42:55 10° SE visible
30 Jan - 21:15:24 10° SW 21:18:40 87° SE 21:21:58 10° NE night (unlit)
30 Jan - 22:53:20 10° WNW 22:55:34 17° NNW 22:57:47 10° NNE night (unlit)
31 Jan - 02:08:51 10° NNW 02:10:49 15° NNE 02:12:50 10° ENE night (unlit)
31 Jan - 03:44:32 10° NW 03:47:50 71° NE 03:51:07 10° ESE night (unlit)
31 Jan - 05:22:53 10° WSW 05:23:58 11° SW 05:24:55 10° SW visible
31 Jan - 20:23:45 10° SSW 20:26:50 41° SE 20:29:58 10° ENE night (unlit)
31 Jan - 22:00:43 10° W 22:03:28 24° NNW 22:06:12 10° NNE night (unlit)
01 Feb - 01:17:25 10° N 01:18:38 12° NNE 01:19:53 10° NE night (unlit)
01 Feb - 02:52:46 10° NW 02:55:53 38° NNE 02:59:00 10° ESE night (unlit)
01 Feb - 04:29:38 10° W 04:32:15 21° SW 04:34:49 10° S night (unlit)
01 Feb - 19:32:33 10° S 19:35:04 21° SE 19:37:39 10° E visible
01 Feb - 21:08:20 10° WSW 21:11:25 38° NNW 21:14:32 10° NE night (unlit)
01 Feb - 22:47:26 10° NW 22:48:41 12° NNW 22:49:53 10° N night (unlit)
02 Feb - 02:01:06 10° NNW 02:03:50 24° NNE 02:06:36 10° E night (unlit)
02 Feb - 03:37:19 10° WNW 03:40:28 42° SW 03:43:36 10° SSE night (unlit)
02 Feb - 18:42:34 10° SE 18:43:19 11° SE 18:44:13 10° ESE visible
02 Feb - 20:16:11 10° WSW 20:19:26 71° NW 20:22:44 10° NE visible
02 Feb - 21:54:28 10° NW 21:56:27 15° NNW 21:58:24 10° NNE night (unlit)
03 Feb - 01:09:29 10° NNW 01:11:41 17° NNE 01:13:56 10° ENE night (unlit)
03 Feb - 02:45:17 10° NW 02:48:35 88° SW 02:51:53 10° SE night (unlit)
03 Feb - 19:24:20 10° SW 19:27:32 56° SE 19:30:45 10° ENE visible
03 Feb - 21:01:42 10° WNW 21:04:16 20° NNW 21:06:49 10° NNE night (unlit)
04 Feb - 00:17:56 10° NNW 00:19:27 13° NNE 00:21:02 10° NE night (unlit)
04 Feb - 01:53:24 10° NW 01:56:37 47° NE 01:59:49 10° ESE night (unlit)
04 Feb - 03:30:39 10° W 03:32:53 17° SW 03:35:02 10° S night (unlit)
04 Feb - 18:32:52 10° SSW 18:35:40 27° SE 18:38:31 10° ENE visible
04 Feb - 20:09:09 10° W 20:12:07 31° NNW 20:15:06 10° NE visible
04 Feb - 21:48:37 10° NNW 21:49:28 11° N 21:50:16 10° N night (unlit)
04 Feb - 23:26:37 10° N 23:27:10 10° N 23:27:45 10° NNE night (unlit)
05 Feb - 01:01:38 10° NNW 01:04:32 28° NNE 01:07:27 10° E night (unlit)
05 Feb - 02:38:03 10° WNW 02:41:03 32° SW 02:44:02 10° SSE night (unlit)
05 Feb - 17:42:05 10° SSE 17:43:51 14° SE 17:45:42 10° E daylight
05 Feb - 19:16:50 10° WSW 19:20:03 55° NW 19:23:17 10° NE visible
05 Feb - 20:55:26 10° NW 20:57:09 13° NNW 20:58:49 10° NNE visible
06 Feb - 00:09:56 10° NNW 00:12:21 19° NNE 00:14:49 10° ENE night (unlit)
06 Feb - 01:45:52 10° NW 01:49:09 67° SW 01:52:25 10° SE night (unlit)
06 Feb - 18:24:48 10° SW 18:28:02 75° SE 18:31:19 10° NE visible
06 Feb - 20:02:32 10° WNW 20:04:53 18° NNW 20:07:12 10° NNE visible
06 Feb - 23:18:17 10° NNW 23:20:05 14° NNE 23:21:56 10° NE night (unlit)
07 Feb - 00:53:53 10° NW 00:57:09 61° NE 01:00:24 10° ESE night (unlit)
07 Feb - 02:31:42 10° W 02:33:20 13° SW 02:34:51 10° SSW night (unlit)
07 Feb - 17:33:05 10° SSW 17:36:05 35° SE 17:39:08 10° ENE daylight
07 Feb - 19:09:49 10° W 19:12:39 26° NNW 19:15:28 10° NNE visible
07 Feb - 20:49:55 10° N 20:50:03 10° N 20:50:09 10° N visible
07 Feb - 22:26:47 10° N 22:27:44 11° NNE 22:28:45 10° NNE night (unlit)
